Location: Duffs
(47.4500°N, 53.1167°W)
Time: 03:34:46
(UTC+00:00)

ISS - Pass Details

Date: 25 May 2022
Orbit: 414 x 420 km, 51.6° (Epoch: 04 July)

Event Time Altitude Azimuth Distance (km) Brightness Sun altitude
Rises 02:39:17 0° 290° (WNW) 2,365 0.5 -20.7°
Reaches altitude 10° 02:41:35 10° 277° (W) 1,497 -0.7 -20.8°
Enters shadow 02:42:46 18° 263° (W) 1,117 -1.6 -20.8°
